Погода в Барабаше

Россия / Приморский край     43°11′27″N   131°29′35″E
темп.,
°C
ветер,
м/с
пор.,
м/с
влажн.,
%
обл.,
%
осадки,
мм/ч
давл.,
гПа
погр.,
м
9 мая, вс
вс901:00+6ююз2293100 0.6 99486
04:00+6зюз269296 0.6 993641
07:00+6зсз2787100 0.0 994800
10:00+7з2787100 1.0 996886
13:00+9зсз4873100 0.7 9961128
16:00+8сз51081100 0.8 9991114
19:00+7сз41083100 0.0 1001958
22:00+8сз41077100 0.1 1005768
10 мая, пн
пн1001:00+7зсз3885100 0.0 1006377
04:00+6зсз358699 0.0 1007116
07:00+6зсз23876 0.0 1010101
10:00+11сз3559100 0.0 10111122
13:00+12сз4458100 0.1 10121337
16:00+13с365497 0.2 10111404
19:00+13ссв37619 0.1 1011877
22:00+6зюз11977 0.4 101512
11 мая, вт
вт1101:00+5сз11978 0.0 101517
04:00+4сз22943 0.0 101625
07:00+5ссз12885 0.0 101746
10:00+13св245417 0.0 10171160
13:00+16в354447 0.0 10161640
16:00+15ююв334990 0.0 10161531
19:00+10ююв357242 0.0 1018388
22:00+5ююв23100100 0.0 1020112
12 мая, ср
ср1201:00+6ююв2793100 0.0 1020481
04:00+6ююв3993100 0.0 1020568
07:00+5ююв31093100 0.0 1020624
10:00+6ююв41192100 0.0 1019685
13:00+7ююв41390100 0.0 1017690
16:00+8ю41190100 0.0 1016631
19:00+7ююв2998100 2.6 1016383
22:00+6ююв1399100 5.2 1017216
13 мая, чт
чт1301:00+6ю1499100 0.1 1016280
04:00+6ю1299100 0.1 1016187
07:00+7ю1299100 0.0 1016135
10:00+10ю239098 0.0 1016446
13:00+14ю3469100 0.0 1014700
16:00+16ю4760100 0.0 1012655
19:00+12ююв2377100 0.0 1013261
22:00+7ююз119697 0.0 101416